This is the latest recevied weather packets stored in our database for station/object K3RUP-1. If no packets are shown the sender has not sent any weather packets the latest 10 day(s).
| Time | Temp. | Humidity | Pressure | Rain* | Wind** | Luminosity | Snow |
|---|---|---|---|---|---|---|---|
| 1788535171 | 27.78° C | 75% | 1013.5 hPa | 0 mm | - | 266 W/m² | - |
| 1788534867 | 27.22° C | 76% | 1013.5 hPa | 0 mm | - | 550 W/m² | - |
| 1788534561 | 27.22° C | 78% | 1013.3 hPa | 0 mm | - | 66 W/m² | - |
| 1788534256 | 27.22° C | 79% | 1013.5 hPa | 0 mm | - | 86 W/m² | - |
| 1788533954 | 26.67° C | 79% | 1013.4 hPa | 0 mm | - | 233 W/m² | - |
| 1788533651 | 26.67° C | 80% | 1013.6 hPa | 0 mm | - | 76 W/m² | - |
| 1788533346 | 26.67° C | 81% | 1013.5 hPa | 0 mm | - | 65 W/m² | - |
| 1788533042 | 26.67° C | 81% | 1013.8 hPa | 0 mm | - | 159 W/m² | - |
| 1788532737 | 26.11° C | 82% | 1013.7 hPa | 0 mm | - | 187 W/m² | - |
| 1788532434 | 26.11° C | 82% | 1013.7 hPa | 0 mm | - | 69 W/m² | - |
| 1788532129 | 26.11° C | 84% | 1013.5 hPa | 0 mm | - | 79 W/m² | - |
| 1788531820 | 25.56° C | 82% | 1013.6 hPa | 0 mm | - | 74 W/m² | - |
| 1788531519 | 25.56° C | 84% | 1013.7 hPa | 0 mm | - | 52 W/m² | - |
| 1788531215 | 25.56° C | 87% | 1013.5 hPa | 0 mm | - | 48 W/m² | - |
| 1788530911 | 25° C | 86% | 1013.5 hPa | 0 mm | - | 59 W/m² | - |
| 1788530606 | 24.44° C | 90% | 1013.3 hPa | 0 mm | - | 48 W/m² | - |
| 1788530305 | 23.33° C | 95% | 1013.4 hPa | 0 mm | - | 41 W/m² | - |
| 1788530000 | 23.33° C | 98% | 1013.8 hPa | 0 mm | - | 46 W/m² | - |
| 1788529696 | 23.33° C | 99% | 1013.5 hPa | 0 mm | - | 56 W/m² | - |
| 1788529396 | 23.33° C | 99% | 1013.6 hPa | 0 mm | - | 39 W/m² | - |
| 1788529090 | 23.33° C | 99% | 1013.5 hPa | 0 mm | - | 38 W/m² | - |
| 1788528786 | 23.33° C | 99% | 1013.8 hPa | 0 mm | - | 39 W/m² | - |
| 1788528486 | 22.78° C | 99% | 1013.5 hPa | 0 mm | - | 94 W/m² | - |
| 1788528181 | 23.33° C | 99% | 1013.4 hPa | 0 mm | - | 75 W/m² | - |
| 1788527880 | 23.33° C | 99% | 1013.3 hPa | 0 mm | - | 63 W/m² | - |
* Rain latest hour (hover to see other rain measurements)
** Current wind speed in m/s (hover to see current wind gust speed)